Location: Aranbee
(34.0885°N, 118.2342°W)
Time: 04:06:19
(UTC+00:00)

Courier 1B Rocket - Pass Details

Date: 29 November 2020
Orbit: 920 x 1202 km, 28.2° (Epoch: 16 January)

Event Time Altitude Azimuth Distance (km) Brightness Sun altitude
Exits shadow 11:00:21 17° 145° (SE) 2,604 7.4 -44.7°
Drops below altitude 10° 11:04:32 10° 112° (ESE) 3,128 8.1 -43.9°
Sets 11:08:29 0° 95° (E) 4,085 9.0 -43.1°
